Wind_Speed
41 42 42 47 51 57 62 60 57 55 51 36 29 32 28 25 26 26 23 25 25 29 35 35 36 33 30 28 27 26 29 28 25 28 27 24 27 25 22 19 20 26 26 23 22 22 21 19 18 18 15 17 17 18
39 41 41 45 53 54 59 60 54 52 39 30 27 30 28 22 23 23 22 21 26 23 30 35 34 33 31 30 30 30 29 29 31 30 31 29 26 29 31 29 24 22 23 25 27 27 26 24 22 20 19 18 17 19
38 40 41 46 55 57 49 51 53 41 26 24 24 28 26 23 20 20 20 19 21 22 21 27 31 32 31 31 29 30 30 31 31 32 33 35 34 31 31 28 29 31 27 24 23 25 27 27 26 24 22 21 20 20
40 41 45 50 55 48 48 45 49 33 23 24 22 26 27 23 17 17 16 19 22 23 23 21 24 28 30 30 32 33 35 37 38 39 39 39 39 37 36 36 30 29 29 26 25 24 25 24 25 25 24 24 23 23
38 41 46 48 51 51 44 46 43 27 22 24 22 24 24 20 16 13 10 10 11 11 11 17 18 17 16 15 19 23 28 34 40 43 46 47 46 45 42 39 38 30 25 27 26 27 25 25 25 26 27 26 25 24
38 39 43 47 53 52 48 41 29 21 23 26 21 22 22 17 15 11 8 5 7 7 4 3 1 6 11 15 19 26 40 50 56 58 58 56 54 53 52 45 38 33 34 27 23 26 25 23 25 25 27 27 26 25
34 36 41 49 51 48 45 33 21 17 19 21 19 19 21 17 13 9 5 9 7 6 6 4 1 6 10 15 21 32 37 41 52 64 71 68 59 52 53 48 41 36 35 29 23 23 23 23 23 25 24 27 26 27
33 37 40 44 47 43 48 32 25 22 23 19 18 18 20 18 10 7 9 8 6 7 8 3 3 7 10 13 24 30 39 38 25 28 36 51 56 45 41 36 35 36 35 31 27 23 20 18 20 23 23 24 26 26
31 34 38 44 43 43 40 40 27 22 21 18 16 17 17 18 13 12 9 8 8 10 8 3 3 6 8 11 18 25 32 37 20 4 16 36 33 34 23 24 28 34 32 31 30 28 27 25 23 23 24 25 26 26
31 35 38 41 42 41 41 46 32 28 24 24 18 16 17 15 14 13 11 10 9 10 9 7 7 7 8 12 13 20 26 29 22 22 44 28 34 24 21 25 25 29 29 29 27 28 26 25 26 27 28 27 28 28
29 34 37 39 39 35 42 37 47 28 27 27 24 21 19 20 17 13 15 14 11 10 8 8 8 6 6 8 12 15 19 21 14 18 13 11 7 9 10 19 25 27 27 25 25 24 22 23 24 26 28 30 30 29
28 33 36 38 36 30 38 40 44 39 26 24 26 24 20 19 17 15 17 18 15 13 10 8 8 9 6 5 8 11 11 12 11 2 2 5 10 14 14 18 20 19 19 20 20 20 20 21 23 24 26 28 31 32
26 32 33 34 32 28 31 39 40 40 43 27 24 22 19 13 9 9 13 19 20 18 16 12 10 10 8 5 8 9 8 5 3 0 4 7 9 9 10 12 13 13 14 16 18 19 20 21 22 23 24 24 26 29
25 29 28 27 26 27 28 33 37 37 37 40 27 23 20 18 14 13 14 17 21 24 23 21 17 13 13 13 11 10 9 8 7 6 8 9 8 7 8 11 13 13 13 13 14 15 17 18 20 20 22 22 24 25
26 28 28 22 25 27 26 26 33 33 30 36 33 30 26 24 20 20 18 17 18 20 26 26 23 20 17 15 15 15 12 11 7 5 8 9 9 10 11 12 14 15 17 16 15 15 16 18 17 16 17 20 16 16
30 32 30 28 24 25 24 20 23 28 28 27 30 29 31 30 27 22 20 20 21 19 21 23 30 28 22 20 18 17 16 15 11 9 11 10 12 11 11 10 12 13 14 13 14 17 17 16 16 20 19 21 18 18
34 36 36 33 31 28 29 25 21 24 31 30 28 32 32 32 31 27 23 21 20 20 22 21 21 25 32 30 25 21 21 21 20 17 17 17 14 13 11 10 9 11 13 15 13 11 14 14 17 18 15 6 11 12
38 40 39 36 33 33 31 29 28 29 29 29 29 27 32 33 33 29 26 22 20 20 20 23 22 22 26 31 32 30 25 23 25 25 23 22 20 16 15 12 11 9 9 11 12 13 12 11 10 11 12 13 13 14
41 42 41 38 37 38 35 31 32 33 33 31 28 28 27 30 37 31 27 27 25 24 21 20 23 23 25 29 32 35 36 34 32 30 28 25 23 23 21 20 19 19 19 18 18 18 18 18 18 19 20 22 23 23
40 42 44 43 41 44 45 40 38 38 35 34 33 31 28 30 35 31 29 26 24 24 22 20 21 27 27 28 32 33 35 38 38 35 32 29 27 25 25 24 24 23 24 24 24 24 23 24 25 26 30 32 33 33
42 45 46 49 52 51 48 45 44 43 36 30 35 35 31 32 34 31 32 32 25 26 24 22 21 22 28 29 29 32 34 35 43 40 35 35 33 30 29 28 27 26 26 26 27 27 27 28 30 33 33 34 30 29
50 52 55 56 57 55 53 50 49 45 43 40 38 33 30 31 31 31 30 30 30 30 28 26 25 25 25 29 31 29 30 35 37 39 43 39 38 38 35 34 32 32 32 31 31 31 32 35 34 37 30 24 23 22
56 58 59 58 56 56 55 53 51 51 46 38 36 31 31 30 28 29 28 27 28 29 30 27 25 26 26 26 28 30 30 31 35 37 37 40 45 42 40 40 38 37 36 36 37 38 40 36 34 30 28 27 24 23
60 59 59 60 59 59 57 56 55 47 43 42 43 41 37 33 27 29 27 26 27 26 28 28 25 24 25 25 25 28 29 29 31 33 36 38 42 44 47 45 43 42 41 41 43 41 39 37 32 31 30 29 27 26
61 60 63 64 64 63 58 51 44 42 42 39 36 34 33 32 29 27 26 26 26 26 26 28 27 24 22 23 23 23 25 26 26 28 31 35 34 35 38 43 45 45 44 43 40 35 31 30 30 30 29 30 30 30
64 62 62 58 50 46 43 39 35 34 33 32 34 33 32 33 30 26 26 27 25 26 27 28 29 25 23 21 20 20 21 23 24 25 26 29 30 29 29 30 32 34 32 29 30 30 31 32 32 33 34 35 36 36
52 48 46 44 39 32 28 27 28 30 30 32 37 34 34 35 33 28 32 31 28 28 28 28 29 26 24 23 19 19 21 23 23 23 25 27 28 30 31 32 34 35 35 33 34 35 36 36 37 38 38 38 38 38
40 35 26 23 24 26 27 28 30 32 33 34 36 36 36 36 33 35 35 34 34 32 30 29 32 28 23 24 22 21 20 22 24 25 26 27 27 28 29 29 29 31 32 33 33 34 35 36 37 38 38 39 40 41
21 14 13 19 26 29 26 27 27 27 30 34 36 36 37 38 37 38 39 40 40 38 34 31 31 34 25 25 24 23 23 23 24 24 25 26 27 27 28 28 29 30 31 33 34 35 35 36 37 38 40 41 42 43
15 20 25 26 26 29 28 34 34 34 35 37 38 39 39 38 40 44 42 41 42 40 38 35 33 37 33 26 24 24 24 23 23 24 25 25 26 26 27 27 27 29 31 32 34 35 36 38 40 41 41 43 44 46
24 26 25 26 26 27 32 37 39 42 44 45 45 46 44 44 40 38 38 37 39 40 42 38 37 42 38 28 24 24 24 25 24 24 24 24 25 26 27 28 29 30 32 34 36 37 38 39 41 43 45 48 51 54
26 25 27 29 29 33 36 35 39 43 46 48 49 50 50 50 51 44 46 53 58 54 48 50 44 40 31 23 24 25 24 23 23 23 23 24 25 25 26 28 30 31 33 34 36 38 41 45 49 52 55 57 57 57
27 29 33 32 33 35 39 46 47 46 42 39 40 42 46 49 50 36 31 38 46 46 38 30 28 30 27 26 23 22 22 22 22 22 22 22 23 24 26 28 29 31 35 40 44 48 51 52 52 52 51 50 45 44
Wind_Direction
302 310 321 324 329 328 326 327 323 311 310 311 310 307 317 304 295 283 267 252 249 237 228 229 231 228 231 231 233 236 239 240 244 248 251 243 242 245 245 245 246 245 245 244 243 243 245 249 248 249 248 241 240 235
304 310 320 330 330 331 328 325 314 304 312 315 311 311 319 306 288 286 275 254 245 248 235 231 232 236 241 242 243 244 246 248 248 246 249 250 246 244 245 247 249 250 247 246 248 249 248 249 251 250 250 244 242 238
302 308 319 324 329 333 338 322 313 308 313 312 310 315 322 311 292 286 274 263 246 250 248 237 234 237 242 245 250 251 251 251 253 255 255 252 248 244 245 248 246 249 250 249 247 247 247 247 247 248 247 247 245 243
304 308 315 324 330 335 334 323 309 296 308 306 310 319 327 321 311 296 282 262 247 253 253 242 240 239 242 244 246 250 252 252 251 249 247 247 248 247 245 243 242 247 248 249 250 249 247 246 245 245 244 245 247 248
308 312 320 331 336 340 339 310 308 299 293 303 304 319 325 326 324 316 303 281 257 239 230 218 216 221 238 265 275 274 278 269 262 256 254 249 246 246 241 241 240 240 245 248 247 252 250 249 246 245 243 243 247 248
310 319 327 336 336 339 338 318 311 301 295 302 305 318 320 319 324 323 287 203 192 168 119 151 226 273 283 287 288 294 290 268 259 255 252 247 244 244 240 236 236 234 238 243 242 245 247 246 244 244 245 244 245 247
313 322 330 335 338 350 341 326 316 322 316 316 306 314 325 319 322 283 209 161 140 157 174 180 247 288 282 287 296 333 327 292 267 254 248 241 234 234 240 233 234 229 231 233 232 241 244 241 241 242 243 243 242 245
314 324 330 334 344 355 355 340 315 304 311 321 309 310 333 335 320 200 179 194 203 218 207 194 321 301 288 310 329 337 344 341 296 262 237 223 206 209 225 229 236 224 224 226 228 236 241 247 248 245 244 246 243 244
315 325 328 335 343 349 354 357 341 324 313 313 311 314 322 337 322 207 192 223 220 219 222 232 284 296 312 327 334 343 356 1 357 295 193 179 165 179 198 213 222 216 218 223 228 235 241 248 253 254 251 248 250 249
319 325 327 332 338 343 357 4 352 343 338 315 306 299 317 318 325 242 220 227 225 224 224 237 268 292 324 343 349 360 2 11 36 114 136 123 147 158 180 196 212 201 214 220 227 234 240 245 249 251 251 252 249 250
319 323 328 328 337 340 350 3 6 348 336 334 328 307 303 305 308 284 234 239 235 229 241 254 264 292 331 345 359 11 14 11 59 140 143 156 158 185 199 196 191 199 211 219 229 238 242 245 248 253 256 255 254 252
319 321 327 327 336 338 351 1 5 7 346 335 335 335 322 304 302 306 248 237 238 238 245 265 273 272 291 324 333 342 355 355 13 148 199 194 171 184 193 190 197 210 220 231 239 244 247 251 255 259 261 262 259 256
315 318 326 326 332 340 349 356 355 0 9 348 330 331 334 323 304 282 270 251 247 250 257 265 274 257 254 269 300 312 320 342 350 115 216 214 198 194 197 202 204 216 229 240 249 255 258 259 262 265 268 269 265 261
309 313 320 326 330 340 347 352 346 351 353 2 346 319 324 337 309 281 261 257 253 249 250 251 255 261 258 254 255 272 273 287 290 266 233 222 221 225 228 226 229 235 244 251 257 260 263 266 266 266 262 267 268 267
299 305 313 321 329 338 343 347 347 341 339 344 346 342 309 308 316 318 294 279 269 260 247 244 248 249 254 254 253 254 259 262 294 298 238 244 250 251 247 245 247 247 246 244 253 255 260 269 273 279 289 287 277 272
293 295 300 306 313 328 329 325 330 326 323 327 331 329 329 300 294 302 307 304 285 270 262 256 246 241 241 243 249 251 248 252 259 264 285 268 252 251 253 256 254 248 242 239 246 260 261 260 261 262 269 255 257 266
287 290 291 297 305 315 316 323 303 310 309 311 311 319 320 319 297 285 291 299 297 286 269 262 257 249 242 243 247 249 254 257 257 252 249 253 273 264 259 265 262 236 230 233 221 238 259 261 251 232 218 211 232 239
287 284 285 289 298 304 308 310 313 322 304 296 306 306 313 316 312 288 276 279 296 296 281 264 259 256 249 243 241 241 242 245 250 254 253 252 253 257 252 251 239 217 211 216 225 234 241 252 267 277 286 286 286 282
282 280 278 285 293 291 294 299 304 309 308 284 290 300 294 302 315 307 285 273 278 286 292 279 262 254 253 250 244 239 236 242 245 244 249 251 250 249 250 244 240 241 245 249 254 260 265 267 270 274 277 278 280 280
281 281 278 281 288 292 290 289 298 299 300 279 282 289 288 290 309 301 297 281 276 274 276 282 274 262 255 252 248 245 242 240 244 244 246 249 249 248 248 246 247 249 251 254 258 262 266 271 276 279 282 284 282 279
274 277 280 280 283 286 289 287 291 294 289 278 284 282 280 280 291 296 295 285 271 263 268 276 279 272 261 253 252 251 246 240 239 244 247 248 249 248 246 245 245 246 251 256 260 264 267 272 278 284 284 285 281 278
273 276 278 281 284 284 282 283 285 288 286 288 284 279 274 273 279 283 290 279 271 262 266 277 285 285 279 261 254 256 253 246 245 243 240 241 244 245 246 246 248 250 254 257 260 266 271 277 280 282 274 265 268 270
270 271 273 274 275 279 279 279 281 286 287 281 273 272 269 266 269 277 289 277 268 265 265 270 281 288 283 271 260 253 258 253 246 246 245 244 243 243 245 248 252 254 257 262 265 270 276 272 270 265 259 260 261 261
268 268 270 270 270 273 276 281 285 281 270 264 272 273 264 257 261 275 280 281 273 266 262 264 273 290 286 275 264 254 260 260 249 246 245 247 248 245 244 247 250 254 262 267 271 270 268 270 260 259 261 262 262 263
265 269 271 274 277 282 283 279 273 271 272 266 258 258 255 254 256 271 274 277 276 270 265 264 273 283 285 274 262 258 260 255 245 247 247 249 253 251 249 250 253 259 263 265 264 261 256 256 259 261 263 265 266 268
271 272 274 278 281 280 279 275 273 269 257 252 253 254 251 249 250 267 273 269 271 271 268 267 273 279 286 274 264 262 258 255 248 246 248 248 247 249 249 249 250 252 253 254 257 260 262 263 264 265 266 268 269 270
269 273 276 276 274 275 265 259 265 258 253 253 252 255 255 250 247 261 265 261 264 269 271 268 267 271 282 273 265 264 264 256 250 248 247 247 248 248 249 250 251 254 257 258 261 263 265 266 266 267 268 268 269 270
268 269 278 265 252 251 257 260 262 258 251 255 255 256 255 255 253 256 260 267 268 260 265 266 263 260 271 273 267 256 258 261 258 254 250 247 247 249 251 253 255 257 259 261 262 263 264 266 267 268 269 270 271 271
264 253 269 261 260 265 267 265 260 255 253 255 255 259 260 260 261 260 261 263 264 258 256 258 260 257 258 267 267 258 255 255 254 255 256 256 254 253 253 254 255 257 259 262 264 267 269 270 272 273 274 274 274 274
280 280 281 279 279 273 265 265 265 267 269 269 267 264 262 262 262 261 262 263 260 256 252 253 255 255 254 260 261 260 258 256 254 253 253 255 256 256 257 259 262 264 267 269 271 272 274 274 274 275 276 276 277 278
285 278 274 273 270 268 266 267 268 267 266 267 269 271 272 268 266 269 271 272 269 265 258 243 245 246 244 252 256 255 256 258 256 254 254 256 259 263 266 267 269 271 272 273 273 273 273 274 275 276 278 279 280 281
260 272 279 280 276 276 279 275 274 275 274 271 270 270 272 275 276 279 277 273 269 260 245 237 238 237 235 248 255 251 253 256 259 257 257 260 262 264 268 271 272 273 274 276 278 279 280 281 282 283 284 284 283 283
279 277 271 271 278 284 285 286 289 289 284 283 281 276 273 274 280 284 263 253 250 248 248 247 228 224 236 244 244 247 253 256 258 259 261 263 267 271 273 276 278 278 280 282 284 284 284 284 284 284 284 284 282 280
Height
5659 5654 5648 5641 5635 5630 5625 5616 5604 5593 5582 5579 5576 5570 5567 5565 5564 5562 5562 5562 5564 5566 5569 5573 5576 5579 5582 5585 5587 5590 5590 5592 5595 5595 5596 5599 5601 5603 5605 5606 5607 5609 5610 5612 5614 5616 5619 5621 5622 5624 5626 5626 5627 5629
5651 5646 5640 5634 5628 5622 5618 5606 5595 5586 5578 5574 5571 5567 5561 5558 5557 5555 5555 5556 5558 5560 5562 5565 5569 5572 5575 5578 5580 5582 5584 5586 5587 5589 5590 5592 5595 5595 5598 5600 5602 5604 5606 5607 5610 5611 5613 5615 5617 5619 5620 5622 5623 5624
5643 5637 5632 5626 5620 5615 5608 5595 5588 5580 5573 5571 5566 5563 5558 5554 5549 5550 5548 5549 5551 5553 5555 5558 5561 5565 5568 5571 5574 5576 5576 5577 5578 5580 5582 5583 5585 5588 5590 5593 5595 5597 5599 5602 5603 5605 5606 5609 5611 5613 5615 5617 5618 5619
5635 5629 5623 5617 5614 5611 5602 5590 5578 5573 5571 5568 5562 5559 5555 5550 5545 5544 5544 5544 5546 5547 5549 5552 5554 5558 5561 5563 5564 5565 5565 5566 5567 5568 5569 5572 5575 5578 5582 5584 5588 5589 5592 5596 5597 5598 5600 5602 5604 5607 5609 5611 5613 5614
5628 5622 5616 5610 5605 5602 5593 5580 5572 5567 5566 5563 5559 5555 5553 5549 5544 5542 5541 5540 5541 5544 5545 5546 5548 5551 5553 5554 5555 5556 5556 5555 5554 5555 5556 5560 5563 5566 5570 5574 5578 5583 5586 5587 5590 5592 5594 5596 5598 5599 5601 5604 5606 5608
5622 5616 5609 5602 5598 5592 5584 5573 5568 5564 5561 5559 5556 5553 5548 5546 5543 5541 5541 5540 5539 5540 5542 5544 5547 5548 5550 5551 5551 5550 5545 5538 5534 5533 5537 5542 5548 5550 5555 5564 5570 5575 5577 5580 5584 5584 5587 5589 5591 5593 5595 5597 5599 5601
5615 5610 5604 5599 5591 5583 5579 5570 5565 5560 5556 5555 5552 5549 5545 5543 5542 5540 5540 5540 5540 5541 5542 5543 5545 5545 5546 5545 5544 5538 5523 5510 5501 5497 5501 5516 5528 5533 5540 5552 5561 5565 5569 5574 5577 5578 5580 5582 5584 5586 5588 5590 5592 5594
5608 5604 5599 5595 5587 5582 5575 5566 5563 5556 5553 5550 5548 5547 5543 5541 5540 5538 5538 5540 5540 5541 5541 5541 5541 5541 5541 5539 5533 5525 5514 5493 5476 5469 5472 5486 5506 5519 5531 5545 5550 5554 5561 5567 5571 5573 5575 5576 5578 5579 5581 5583 5585 5586
5601 5598 5594 5589 5584 5581 5575 5567 5561 5554 5550 5547 5545 5543 5541 5540 5538 5537 5537 5538 5538 5540 5538 5538 5538 5539 5537 5533 5530 5524 5511 5495 5475 5466 5469 5483 5500 5514 5528 5536 5541 5547 5555 5560 5564 5567 5569 5571 5572 5573 5575 5576 5577 5579
5595 5591 5587 5584 5583 5578 5574 5567 5559 5554 5547 5544 5543 5541 5538 5538 5536 5536 5536 5537 5536 5536 5536 5536 5536 5535 5533 5530 5528 5524 5515 5504 5493 5486 5489 5498 5509 5519 5526 5531 5536 5542 5549 5554 5557 5560 5563 5565 5565 5566 5567 5568 5569 5571
5587 5585 5582 5580 5578 5575 5571 5564 5559 5551 5546 5544 5539 5537 5535 5534 5535 5534 5534 5534 5534 5534 5533 5533 5533 5532 5531 5529 5526 5523 5520 5516 5514 5514 5512 5513 5517 5521 5526 5529 5534 5539 5544 5548 5551 5555 5557 5558 5558 5559 5559 5560 5561 5562
5579 5579 5575 5575 5572 5571 5568 5561 5556 5551 5546 5541 5538 5534 5532 5531 5531 5532 5530 5531 5532 5532 5532 5531 5531 5530 5529 5528 5526 5524 5523 5522 5521 5520 5520 5520 5521 5523 5526 5529 5533 5538 5541 5544 5546 5548 5550 5551 5551 5552 5552 5552 5553 5553
5573 5572 5569 5570 5568 5566 5563 5557 5552 5549 5545 5538 5536 5534 5531 5529 5529 5528 5526 5526 5527 5528 5528 5528 5528 5528 5528 5527 5526 5525 5525 5524 5524 5522 5522 5522 5523 5525 5527 5530 5533 5535 5537 5539 5541 5542 5543 5544 5544 5545 5545 5545 5544 5545
5567 5566 5564 5565 5563 5561 5558 5554 5550 5545 5541 5537 5534 5533 5531 5528 5526 5523 5522 5521 5521 5521 5522 5523 5523 5525 5525 5525 5525 5524 5524 5524 5523 5523 5523 5524 5524 5526 5527 5528 5530 5532 5534 5535 5536 5537 5538 5538 5538 5538 5538 5538 5537 5537
5560 5558 5558 5557 5556 5553 5551 5549 5546 5542 5538 5535 5533 5530 5528 5527 5524 5521 5518 5516 5515 5514 5514 5516 5517 5520 5520 5521 5521 5521 5522 5522 5521 5520 5521 5521 5522 5523 5524 5525 5526 5527 5529 5530 5532 5533 5533 5534 5533 5533 5532 5532 5532 5532
5551 5552 5552 5551 5548 5546 5544 5542 5540 5537 5535 5533 5530 5528 5524 5520 5519 5518 5515 5512 5510 5509 5508 5509 5510 5512 5514 5515 5516 5517 5518 5518 5519 5519 5519 5519 5519 5520 5521 5521 5522 5523 5524 5526 5528 5528 5529 5529 5530 5530 5530 5529 5528 5528
5542 5543 5543 5542 5541 5539 5537 5536 5533 5532 5530 5528 5525 5522 5518 5514 5511 5511 5510 5508 5506 5504 5503 5503 5503 5504 5506 5508 5510 5512 5514 5514 5514 5515 5515 5515 5516 5517 5517 5518 5518 5519 5521 5522 5523 5524 5525 5525 5525 5525 5525 5525 5524 5524
5532 5532 5532 5533 5531 5529 5527 5527 5525 5524 5523 5521 5518 5515 5512 5509 5505 5502 5502 5502 5501 5498 5496 5496 5497 5497 5497 5498 5502 5504 5505 5505 5506 5508 5509 5511 5512 5513 5514 5515 5516 5517 5518 5519 5520 5521 5521 5521 5521 5521 5521 5521 5521 5521
5521 5521 5522 5522 5521 5519 5517 5518 5517 5514 5515 5512 5510 5507 5505 5502 5498 5495 5493 5494 5493 5492 5491 5490 5489 5488 5488 5489 5491 5493 5496 5497 5499 5500 5502 5504 5506 5507 5509 5510 5512 5513 5514 5515 5515 5516 5516 5516 5516 5516 5516 5516 5516 5516
5508 5509 5510 5510 5509 5508 5507 5506 5506 5504 5504 5503 5500 5498 5495 5494 5491 5488 5486 5485 5485 5485 5484 5482 5480 5479 5480 5481 5481 5483 5485 5489 5490 5492 5495 5496 5498 5500 5501 5503 5504 5506 5507 5508 5509 5509 5509 5509 5509 5509 5509 5508 5507 5507
5495 5495 5496 5495 5495 5496 5494 5493 5493 5493 5492 5490 5490 5487 5486 5484 5482 5480 5477 5475 5476 5475 5476 5474 5473 5472 5471 5472 5472 5473 5474 5475 5478 5482 5486 5488 5490 5492 5493 5495 5496 5498 5499 5499 5500 5501 5501 5501 5501 5501 5500 5499 5497 5496
5482 5482 5481 5480 5481 5481 5482 5482 5480 5480 5479 5478 5477 5474 5473 5473 5472 5471 5468 5465 5465 5465 5466 5465 5464 5463 5462 5461 5462 5463 5464 5466 5467 5469 5473 5476 5478 5481 5483 5485 5487 5488 5489 5490 5491 5491 5492 5492 5491 5491 5490 5490 5490 5489
5467 5466 5464 5465 5465 5467 5469 5468 5466 5466 5463 5464 5463 5461 5460 5461 5461 5460 5458 5456 5455 5456 5456 5456 5455 5454 5453 5452 5452 5453 5454 5455 5457 5458 5460 5463 5467 5470 5472 5474 5476 5477 5479 5480 5481 5481 5481 5481 5481 5481 5481 5481 5481 5481
5449 5447 5447 5446 5450 5449 5451 5452 5450 5448 5448 5447 5447 5447 5447 5449 5450 5450 5449 5446 5445 5446 5447 5447 5447 5446 5444 5443 5442 5443 5444 5444 5445 5447 5450 5451 5453 5455 5459 5462 5463 5465 5467 5468 5468 5469 5469 5469 5470 5471 5471 5471 5472 5472
5432 5434 5431 5429 5432 5434 5434 5433 5432 5430 5430 5429 5431 5433 5434 5436 5439 5440 5439 5437 5437 5437 5438 5437 5437 5437 5436 5435 5434 5434 5435 5435 5436 5438 5439 5441 5443 5444 5446 5449 5452 5453 5455 5456 5456 5457 5457 5458 5459 5460 5460 5461 5461 5461
5418 5416 5416 5416 5417 5416 5416 5416 5415 5415 5415 5416 5419 5421 5423 5424 5427 5430 5430 5427 5428 5428 5428 5428 5428 5428 5428 5427 5426 5426 5426 5427 5427 5428 5430 5432 5434 5435 5437 5439 5440 5442 5444 5445 5445 5446 5447 5448 5449 5449 5449 5449 5449 5449
5400 5402 5402 5402 5401 5403 5402 5404 5404 5404 5405 5406 5408 5409 5410 5412 5417 5421 5419 5418 5419 5420 5419 5420 5420 5420 5419 5419 5418 5418 5418 5419 5419 5420 5421 5422 5424 5426 5427 5429 5430 5431 5432 5434 5434 5435 5436 5436 5436 5436 5436 5436 5435 5435
5391 5391 5390 5392 5392 5393 5393 5393 5394 5395 5396 5395 5396 5397 5398 5403 5408 5408 5408 5409 5409 5410 5410 5410 5410 5411 5411 5410 5410 5410 5410 5411 5412 5413 5413 5414 5415 5416 5417 5419 5420 5421 5421 5422 5423 5423 5423 5424 5424 5423 5423 5422 5421 5421
5383 5384 5384 5383 5383 5383 5383 5383 5384 5384 5384 5382 5385 5388 5390 5392 5396 5396 5396 5395 5396 5397 5399 5400 5401 5400 5403 5402 5402 5402 5402 5402 5403 5404 5405 5406 5406 5408 5409 5409 5410 5411 5411 5411 5411 5411 5410 5410 5410 5409 5408 5407 5406 5405
5377 5377 5375 5374 5372 5372 5375 5371 5375 5374 5374 5374 5375 5376 5378 5381 5382 5380 5381 5382 5382 5384 5386 5387 5390 5390 5392 5393 5394 5394 5394 5395 5395 5396 5397 5398 5398 5399 5399 5400 5401 5401 5400 5399 5399 5398 5397 5396 5395 5393 5392 5391 5389 5388
5368 5367 5366 5366 5367 5368 5365 5363 5363 5363 5361 5360 5361 5360 5362 5362 5367 5368 5369 5369 5368 5368 5368 5372 5375 5377 5380 5384 5385 5387 5387 5387 5388 5389 5389 5389 5389 5390 5390 5390 5390 5390 5389 5388 5386 5385 5384 5382 5380 5378 5376 5374 5372 5370
5359 5358 5357 5356 5357 5355 5353 5351 5348 5347 5347 5345 5345 5345 5346 5345 5345 5349 5354 5347 5343 5343 5348 5353 5361 5367 5372 5376 5377 5378 5379 5380 5380 5381 5381 5381 5381 5381 5381 5380 5380 5379 5378 5376 5374 5371 5369 5366 5363 5360 5357 5353 5349 5346
5351 5350 5348 5346 5346 5345 5342 5336 5335 5333 5332 5331 5329 5328 5329 5328 5327 5330 5326 5322 5326 5332 5339 5346 5353 5361 5366 5368 5369 5371 5372 5372 5373 5373 5373 5373 5373 5372 5371 5370 5369 5367 5365 5362 5359 5355 5351 5347 5343 5339 5335 5332 5328 5326